Location: Del Amo
(33.8464°N, 118.2104°W)
Time: 02:55:11
(UTC+00:00)

Transit 4A - Pass Details

Date: 17 September 2024
Orbit: 865 x 977 km, 66.8° (Epoch: 08 October)

Event Time Altitude Azimuth Distance (km) Brightness Sun altitude
Exits shadow 10:19:02 22° 14° (NNE) 1,832 9.8 -39.4°
Drops below altitude 10° 10:21:06 10° 20° (NNE) 2,572 10.7 -39.1°
Sets 10:23:41 0° 23° (NNE) 3,532 11.6 -38.7°
